• en Suisse
  • Liste des pays
  • À 7 jours
  • Température de l'eau
  • Carte satellitaire
  • Carte météo
  • Widgets météo
  • user-avatar
    Se connecter

    Météo par heure à Kalemie

    Ce jour, 17 Octobre, Mardi

    Heure Température Précipitation Vent Pression Humidité
    00:00 +23°C° 0 mm 0 m/s 706 mmHg 73%
    01:00 +23°C° 0 mm 0 m/s 706 mmHg 74%
    02:00 +23°C° 0 mm 0 m/s 706 mmHg 75%
    03:00 +22°C° 0 mm 0 m/s 706 mmHg 76%
    04:00 +22°C° 0 mm 0 m/s 706 mmHg 77%
    05:00 +22°C° 0 mm 0 m/s 706 mmHg 78%
    06:00 +24°C° 0 mm 0 m/s 706 mmHg 73%
    07:00 +26°C° 0 mm 0 m/s 707 mmHg 68%
    08:00 +28°C° 0 mm 0 m/s 707 mmHg 61%
    09:00 +32°C° 0,1 mm 1 m/s 707 mmHg 55%
    10:00 +33°C° 0,1 mm 1 m/s 707 mmHg 49%
    11:00 +36°C° 0,1 mm 2 m/s 707 mmHg 43%
    12:00 +36°C° 0 mm 2 m/s 706 mmHg 44%
    13:00 +34°C° 0 mm 1 m/s 706 mmHg 45%
    14:00 +36°C° 0 mm 2 m/s 705 mmHg 42%
    15:00 +34°C° 0 mm 1 m/s 705 mmHg 46%
    16:00 +33°C° 0 mm 1 m/s 705 mmHg 50%
    17:00 +33°C° 0 mm 1 m/s 705 mmHg 54%
    18:00 +31°C° 0 mm 1 m/s 705 mmHg 56%
    19:00 +27°C° 0 mm 0 m/s 705 mmHg 58%
    20:00 +26°C° 0 mm 0 m/s 706 mmHg 61%
    21:00 +25°C° 0 mm 0 m/s 706 mmHg 62%
    22:00 +25°C° 0 mm 0 m/s 706 mmHg 64%
    23:00 +24°C° 0 mm 0 m/s 706 mmHg 65%

    Demain, 18 Octobre, Mercredi

    Heure Température Précipitation Vent Pression Humidité
    00:00 +24°C° 0 mm 0 m/s 706 mmHg 67%
    01:00 +26°C° 0 mm 1 m/s 705 mmHg 68%
    02:00 +25°C° 0 mm 1 m/s 705 mmHg 70%
    03:00 +25°C° 0 mm 1 m/s 705 mmHg 72%
    04:00 +24°C° 0 mm 1 m/s 705 mmHg 75%
    05:00 +24°C° 0 mm 1 m/s 705 mmHg 78%
    06:00 +26°C° 0 mm 1 m/s 706 mmHg 74%
    07:00 +27°C° 0 mm 1 m/s 706 mmHg 71%
    08:00 +29°C° 0 mm 1 m/s 707 mmHg 67%
    09:00 +31°C° 0,1 mm 1 m/s 707 mmHg 59%
    10:00 +34°C° 0,1 mm 1 m/s 707 mmHg 50%
    11:00 +37°C° 0,1 mm 1 m/s 707 mmHg 42%
    12:00 +36°C° 0 mm 1 m/s 706 mmHg 44%
    13:00 +35°C° 0 mm 1 m/s 705 mmHg 45%
    14:00 +34°C° 0 mm 1 m/s 704 mmHg 46%
    15:00 +31°C° 0 mm 0 m/s 704 mmHg 49%
    16:00 +30°C° 0 mm 0 m/s 704 mmHg 52%
    17:00 +29°C° 0 mm 0 m/s 704 mmHg 55%
    18:00 +28°C° 0 mm 0 m/s 704 mmHg 57%
    19:00 +29°C° 0 mm 1 m/s 704 mmHg 59%
    20:00 +28°C° 0 mm 1 m/s 705 mmHg 61%
    21:00 +28°C° 0 mm 1 m/s 705 mmHg 64%
    22:00 +27°C° 0 mm 1 m/s 705 mmHg 67%
    23:00 +26°C° 0 mm 1 m/s 705 mmHg 70%

    Après-demain, 19 Octobre, Jeudi

    Heure Température Précipitation Vent Pression Humidité
    00:00 +26°C° 0 mm 1 m/s 705 mmHg 72%
    01:00 +25°C° 0 mm 1 m/s 704 mmHg 74%
    02:00 +25°C° 0 mm 1 m/s 704 mmHg 76%
    03:00 +24°C° 0,1 mm 1 m/s 704 mmHg 78%
    04:00 +24°C° 0,1 mm 1 m/s 705 mmHg 80%
    05:00 +24°C° 0,1 mm 1 m/s 705 mmHg 82%
    06:00 +25°C° 0 mm 1 m/s 706 mmHg 79%
    07:00 +26°C° 0 mm 2 m/s 707 mmHg 76%
    08:00 +28°C° 0 mm 2 m/s 707 mmHg 73%
    09:00 +31°C° 0 mm 2 m/s 707 mmHg 63%
    10:00 +33°C° 0 mm 1 m/s 708 mmHg 54%
    11:00 +36°C° 0 mm 1 m/s 708 mmHg 44%
    12:00 +36°C° 0 mm 1 m/s 707 mmHg 43%
    13:00 +36°C° 0 mm 1 m/s 706 mmHg 41%
    14:00 +36°C° 0 mm 1 m/s 705 mmHg 39%
    15:00 +34°C° 0 mm 1 m/s 705 mmHg 43%
    16:00 +31°C° 0 mm 0 m/s 705 mmHg 48%
    17:00 +30°C° 0 mm 0 m/s 704 mmHg 52%
    18:00 +31°C° 0 mm 1 m/s 705 mmHg 55%
    19:00 +30°C° 0 mm 1 m/s 705 mmHg 59%
    20:00 +28°C° 0 mm 2 m/s 706 mmHg 62%
    21:00 +27°C° 0 mm 2 m/s 706 mmHg 68%
    22:00 +26°C° 0 mm 2 m/s 706 mmHg 75%
    23:00 +25°C° 0 mm 2 m/s 706 mmHg 81%

    20 Octobre, Vendredi

    Heure Température Précipitation Vent Pression Humidité
    00:00 +25°C° 0 mm 2 m/s 706 mmHg 83%
    01:00 +24°C° 0 mm 2 m/s 706 mmHg 85%
    02:00 +24°C° 0 mm 2 m/s 705 mmHg 88%
    03:00 +24°C° 0 mm 2 m/s 705 mmHg 87%
    04:00 +23°C° 0 mm 2 m/s 705 mmHg 87%
    05:00 +23°C° 0 mm 2 m/s 706 mmHg 87%
    06:00 +24°C° 0 mm 2 m/s 706 mmHg 84%
    07:00 +25°C° 0 mm 2 m/s 707 mmHg 80%
    08:00 +26°C° 0 mm 2 m/s 708 mmHg 77%
    09:00 +28°C° 0,3 mm 2 m/s 708 mmHg 69%
    10:00 +30°C° 0,3 mm 2 m/s 708 mmHg 62%
    11:00 +34°C° 0,3 mm 2 m/s 708 mmHg 54%
    12:00 +32°C° 1,6 mm 2 m/s 707 mmHg 57%
    13:00 +32°C° 1,6 mm 2 m/s 706 mmHg 59%
    14:00 +31°C° 1,6 mm 2 m/s 705 mmHg 62%
    15:00 +30°C° 0 mm 2 m/s 705 mmHg 64%
    16:00 +29°C° 0 mm 2 m/s 705 mmHg 67%
    17:00 +29°C° 0 mm 1 m/s 705 mmHg 70%
    18:00 +27°C° 0,8 mm 1 m/s 705 mmHg 74%
    19:00 +26°C° 0,8 mm 1 m/s 705 mmHg 78%
    20:00 +24°C° 0,8 mm 1 m/s 705 mmHg 82%
    21:00 +24°C° 0,1 mm 1 m/s 706 mmHg 82%
    22:00 +25°C° 0,1 mm 1 m/s 706 mmHg 81%
    23:00 +25°C° 0,1 mm 1 m/s 706 mmHg 80%

    21 Octobre, Samedi

    Heure Température Précipitation Vent Pression Humidité
    00:00 +24°C° 0,6 mm 1 m/s 706 mmHg 83%
    01:00 +24°C° 0,6 mm 1 m/s 705 mmHg 85%
    02:00 +24°C° 0,6 mm 2 m/s 705 mmHg 87%
    03:00 +23°C° 0,3 mm 2 m/s 705 mmHg 89%
    04:00 +23°C° 0,3 mm 2 m/s 705 mmHg 91%
    05:00 +23°C° 0,3 mm 2 m/s 705 mmHg 93%
    06:00 +24°C° 0 mm 2 m/s 706 mmHg 88%
    07:00 +25°C° 0 mm 2 m/s 707 mmHg 84%
    08:00 +26°C° 0 mm 2 m/s 707 mmHg 79%
    09:00 +29°C° 0 mm 2 m/s 707 mmHg 68%
    10:00 +32°C° 0 mm 2 m/s 707 mmHg 57%
    11:00 +35°C° 0 mm 1 m/s 707 mmHg 45%
    12:00 +35°C° 0 mm 1 m/s 707 mmHg 45%
    13:00 +35°C° 0 mm 1 m/s 706 mmHg 45%
    14:00 +33°C° 0 mm 0 m/s 705 mmHg 45%
    15:00 +34°C° 0 mm 1 m/s 705 mmHg 49%
    16:00 +32°C° 0 mm 1 m/s 705 mmHg 54%
    17:00 +31°C° 0 mm 1 m/s 705 mmHg 59%
    18:00 +29°C° 0,2 mm 1 m/s 705 mmHg 64%
    19:00 +28°C° 0,2 mm 1 m/s 706 mmHg 69%
    20:00 +27°C° 0,2 mm 1 m/s 706 mmHg 74%
    21:00 +26°C° 1,9 mm 1 m/s 706 mmHg 80%
    22:00 +25°C° 1,9 mm 1 m/s 706 mmHg 86%
    23:00 +24°C° 1,9 mm 1 m/s 706 mmHg 91%

    22 Octobre, Dimanche

    Heure Température Précipitation Vent Pression Humidité
    00:00 +24°C° 1,2 mm 1 m/s 706 mmHg 92%
    01:00 +24°C° 1,2 mm 2 m/s 706 mmHg 92%
    02:00 +24°C° 1,2 mm 2 m/s 706 mmHg 93%
    03:00 +24°C° 0,3 mm 2 m/s 706 mmHg 92%
    04:00 +24°C° 0,3 mm 2 m/s 706 mmHg 92%
    05:00 +24°C° 0,3 mm 2 m/s 706 mmHg 91%
    06:00 +25°C° 0,1 mm 2 m/s 706 mmHg 87%
    07:00 +26°C° 0,1 mm 2 m/s 707 mmHg 83%
    08:00 +27°C° 0,1 mm 2 m/s 707 mmHg 79%
    09:00 +28°C° 0 mm 3 m/s 707 mmHg 70%
    10:00 +30°C° 0 mm 3 m/s 707 mmHg 60%
    11:00 +33°C° 0 mm 3 m/s 707 mmHg 50%
    12:00 +34°C° 0 mm 2 m/s 707 mmHg 48%
    13:00 +34°C° 0 mm 2 m/s 706 mmHg 46%
    14:00 +35°C° 0 mm 2 m/s 705 mmHg 44%
    15:00 +34°C° 0 mm 2 m/s 705 mmHg 48%
    16:00 +32°C° 0 mm 2 m/s 705 mmHg 53%
    17:00 +31°C° 0 mm 1 m/s 705 mmHg 58%
    18:00 +29°C° 0,3 mm 1 m/s 705 mmHg 63%
    19:00 +27°C° 0,3 mm 1 m/s 705 mmHg 68%
    20:00 +25°C° 0,3 mm 1 m/s 705 mmHg 73%
    21:00 +24°C° 0,4 mm 1 m/s 705 mmHg 75%
    22:00 +24°C° 0,4 mm 1 m/s 706 mmHg 76%
    23:00 +24°C° 0,4 mm 1 m/s 706 mmHg 77%
    Voir plus